Weather History for Windom, MN

Change the Weather History Date:

Wednesday, January 1, 2014

  Actual Average Record
Temperature  
Mean Temperature -4 °F -  
Max Temperature -2 °F 22 °F 49 °F (1964)
Min Temperature -7 °F 4 °F -26 °F (1974)
Degree Days  
Heating Degree Days 70    
Moisture  
Dew Point -10 °F    
Average Humidity 77    
Maximum Humidity 84    
Minimum Humidity 66    
Precipitation  
Precipitation 0.00 in - - ()
Sea Level Pressure  
Sea Level Pressure 30.33 in    
Wind  
Wind Speed 10 mph (North)    
Max Wind Speed 14 mph    
Max Gust Speed -    
Visibility 10 miles    
Events      
Averages and records for this station are not official NWS values.
T = Trace of Precipitation, MM = Missing Value Source: NWS Daily Summary

Daily Weather History Graph

Daily Weather History Graph

Search for Another Location

Airport:

Trip Planner

Search our weather history database for the weather conditions in past years. The results will help you decide how hot, cold, wet, or windy it might be!

Date:

Astronomy

Jan. 01, 2014 Rise Set
Actual Time 7:54 AM CST 4:53 PM CST
Civil Twilight 7:22 AM CST 5:26 PM CST
Nautical Twilight 6:45 AM CST 6:02 PM CST
Astronomical Twilight 6:10 AM CST 6:37 PM CST
Moon 7:43 AM CST (1/1) 5:42 PM CST (1/1)
Length of Visible Light 10h 04m
Length of Day
8h 58m
New Moon, 0% of the Moon is Illuminated
Jan 1
New Moon
Jan 7
First Quarter
Jan 15
Full
Jan 23
Last Quarter
Jan 30
New

Hourly Weather History & Observations

Time (CST) Temp. Windchill Dew Point Humidity Pressure Visibility Wind Dir Wind Speed Gust Speed Precip Events Conditions
12:12 AM -7.6 °F -25.7 °F -13.0 °F 77% 30.27 in 10.0 mi NNE 10.4 mph - N/A   Overcast
12:33 AM -7.6 °F -25.7 °F -13.0 °F 77% 30.28 in 10.0 mi NNE 10.4 mph - N/A   Overcast
12:52 AM -7.6 °F -25.7 °F -11.2 °F 84% 30.28 in 10.0 mi NNE 10.4 mph - N/A   Overcast
1:13 AM -7.6 °F -27.5 °F -11.2 °F 84% 30.27 in 10.0 mi NNE 12.7 mph - N/A   Overcast
1:32 AM -7.6 °F -24.6 °F -11.2 °F 84% 30.27 in 10.0 mi NNE 9.2 mph - N/A   Overcast
1:52 AM -7.6 °F -26.6 °F -11.2 °F 84% 30.27 in 10.0 mi NNE 11.5 mph - N/A   Overcast
2:13 AM -7.6 °F -25.7 °F -11.2 °F 84% 30.28 in 10.0 mi NE 10.4 mph - N/A   Overcast
2:32 AM -7.6 °F -24.6 °F -11.2 °F 84% 30.29 in 10.0 mi NNE 9.2 mph - N/A   Overcast
2:52 AM -7.6 °F -24.6 °F -11.2 °F 84% 30.29 in 10.0 mi NNE 9.2 mph - N/A   Overcast
3:13 AM -7.6 °F -25.7 °F -11.2 °F 84% 30.30 in 10.0 mi NE 10.4 mph - N/A   Overcast
3:32 AM -7.6 °F -24.6 °F -11.2 °F 84% 30.29 in 10.0 mi NE 9.2 mph - N/A   Overcast
3:52 AM -7.6 °F -25.7 °F -13.0 °F 77% 30.27 in 10.0 mi NE 10.4 mph - N/A   Overcast
4:13 AM -7.6 °F -23.4 °F -13.0 °F 77% 30.28 in 10.0 mi NE 8.1 mph - N/A   Overcast
4:32 AM -7.6 °F -25.7 °F -11.2 °F 84% 30.28 in 10.0 mi NNE 10.4 mph - N/A   Overcast
4:52 AM -7.6 °F -23.4 °F -11.2 °F 84% 30.28 in 10.0 mi NE 8.1 mph - N/A   Overcast
5:13 AM -7.6 °F -24.6 °F -11.2 °F 84% 30.28 in 10.0 mi NE 9.2 mph - N/A   Overcast
5:32 AM -5.8 °F -23.4 °F -11.2 °F 77% 30.27 in 10.0 mi NE 10.4 mph - N/A   Overcast
5:52 AM -5.8 °F -22.4 °F -11.2 °F 77% 30.28 in 10.0 mi NE 9.2 mph - N/A   Overcast
6:13 AM -5.8 °F -21.2 °F -11.2 °F 77% 30.28 in 10.0 mi NE 8.1 mph - N/A   Overcast
6:32 AM -5.8 °F -21.2 °F -11.2 °F 77% 30.28 in 10.0 mi NE 8.1 mph - N/A   Overcast
6:52 AM -5.8 °F -22.4 °F -11.2 °F 77% 30.30 in 10.0 mi NNE 9.2 mph - N/A   Overcast
7:13 AM -5.8 °F -24.4 °F -11.2 °F 77% 30.31 in 10.0 mi NNE 11.5 mph - N/A   Overcast
7:32 AM -5.8 °F -25.2 °F -11.2 °F 77% 30.32 in 10.0 mi North 12.7 mph - N/A   Overcast
7:52 AM -5.8 °F -26.0 °F -11.2 °F 77% 30.32 in 10.0 mi NNE 13.8 mph - N/A   Overcast
8:13 AM -5.8 °F -23.4 °F -11.2 °F 77% 30.33 in 10.0 mi NNE 10.4 mph - N/A   Overcast
8:32 AM -5.8 °F -22.4 °F -11.2 °F 77% 30.34 in 10.0 mi NNE 9.2 mph - N/A   Overcast
8:52 AM -5.8 °F -24.4 °F -11.2 °F 77% 30.35 in 10.0 mi NNE 11.5 mph - N/A   Overcast
9:13 AM -5.8 °F -25.2 °F -11.2 °F 77% 30.35 in 10.0 mi North 12.7 mph - N/A   Overcast
9:32 AM -5.8 °F -24.4 °F -11.2 °F 77% 30.36 in 10.0 mi North 11.5 mph - N/A   Overcast
9:52 AM -5.8 °F -24.4 °F -11.2 °F 77% 30.37 in 10.0 mi NNE 11.5 mph - N/A   Overcast
10:13 AM -5.8 °F -23.4 °F -11.2 °F 77% 30.37 in 10.0 mi North 10.4 mph - N/A   Overcast
10:32 AM -5.8 °F -23.4 °F -11.2 °F 77% 30.37 in 10.0 mi NNE 10.4 mph - N/A   Overcast
10:53 AM -5.8 °F -24.4 °F -11.2 °F 77% 30.37 in 10.0 mi North 11.5 mph - N/A   Overcast
11:12 AM -4.0 °F -23.0 °F -9.4 °F 78% 30.36 in 10.0 mi North 12.7 mph - N/A   Overcast
11:32 AM -4.0 °F -21.2 °F -9.4 °F 78% 30.36 in 10.0 mi North 10.4 mph - N/A   Overcast
11:53 AM -4.0 °F -20.2 °F -9.4 °F 78% 30.35 in 10.0 mi North 9.2 mph - N/A   Overcast
12:12 PM -4.0 °F -21.2 °F -11.2 °F 71% 30.35 in 10.0 mi North 10.4 mph - N/A   Overcast
12:33 PM -4.0 °F -20.2 °F -11.2 °F 71% 30.34 in 10.0 mi North 9.2 mph - N/A   Overcast
12:52 PM -4.0 °F -21.2 °F -11.2 °F 71% 30.34 in 10.0 mi North 10.4 mph - N/A   Overcast
1:12 PM -2.2 °F -19.9 °F -9.4 °F 71% 30.34 in 10.0 mi North 11.5 mph - N/A   Overcast
1:33 PM -2.2 °F -18.9 °F -11.2 °F 66% 30.33 in 10.0 mi North 10.4 mph - N/A   Overcast
1:52 PM -2.2 °F -18.0 °F -9.4 °F 71% 30.33 in 10.0 mi North 9.2 mph - N/A   Overcast
2:12 PM -2.2 °F -18.0 °F -9.4 °F 71% 30.32 in 10.0 mi North 9.2 mph - N/A   Overcast
2:33 PM -2.2 °F -19.9 °F -9.4 °F 71% 30.33 in 10.0 mi North 11.5 mph - N/A   Overcast
2:52 PM -2.2 °F -18.9 °F -9.4 °F 71% 30.33 in 10.0 mi North 10.4 mph - N/A   Overcast
3:12 PM -2.2 °F -18.9 °F -9.4 °F 71% 30.33 in 10.0 mi North 10.4 mph - N/A   Overcast
3:33 PM -2.2 °F -19.9 °F -9.4 °F 71% 30.33 in 10.0 mi North 11.5 mph - N/A   Overcast
3:52 PM -4.0 °F -19.0 °F -9.4 °F 78% 30.34 in 10.0 mi North 8.1 mph - N/A   Overcast
4:12 PM -4.0 °F -20.2 °F -9.4 °F 78% 30.34 in 10.0 mi North 9.2 mph - N/A   Overcast
4:33 PM -2.2 °F -18.9 °F -9.4 °F 71% 30.35 in 10.0 mi North 10.4 mph - N/A   Overcast
4:52 PM -4.0 °F -23.0 °F -9.4 °F 78% 30.35 in 10.0 mi NNW 12.7 mph - N/A   Overcast
5:12 PM -2.2 °F -20.7 °F -9.4 °F 71% 30.36 in 10.0 mi NNW 12.7 mph - N/A   Overcast
5:33 PM -4.0 °F -20.2 °F -9.4 °F 78% 30.36 in 10.0 mi North 9.2 mph - N/A   Overcast
5:52 PM -4.0 °F -16.3 °F -9.4 °F 78% 30.36 in 10.0 mi North 5.8 mph - N/A   Overcast
6:12 PM -4.0 °F -17.8 °F -9.4 °F 78% 30.36 in 10.0 mi North 6.9 mph - N/A   Overcast
6:33 PM -2.2 °F -16.8 °F -9.4 °F 71% 30.37 in 10.0 mi North 8.1 mph - N/A   Overcast
6:52 PM -2.2 °F -18.9 °F -9.4 °F 71% 30.38 in 10.0 mi NNW 10.4 mph - N/A   Overcast
7:12 PM -2.2 °F -19.9 °F -9.4 °F 71% 30.37 in 10.0 mi NNW 11.5 mph - N/A   Overcast
7:33 PM -2.2 °F -18.9 °F -7.6 °F 78% 30.37 in 10.0 mi North 10.4 mph - N/A   Overcast
7:52 PM -2.2 °F -19.9 °F -7.6 °F 78% 30.37 in 10.0 mi North 11.5 mph - N/A   Overcast
8:12 PM -2.2 °F -18.9 °F -7.6 °F 78% 30.37 in 10.0 mi NNW 10.4 mph - N/A   Overcast
8:33 PM -2.2 °F -20.7 °F -7.6 °F 78% 30.37 in 10.0 mi North 12.7 mph - N/A   Overcast
8:52 PM -2.2 °F -18.9 °F -7.6 °F 78% 30.37 in 10.0 mi North 10.4 mph - N/A   Overcast
9:13 PM -2.2 °F -18.0 °F -7.6 °F 78% 30.37 in 10.0 mi North 9.2 mph - N/A   Overcast
9:32 PM -2.2 °F -18.0 °F -7.6 °F 78% 30.37 in 10.0 mi North 9.2 mph - N/A   Overcast
9:52 PM -2.2 °F -16.8 °F -7.6 °F 78% 30.37 in 10.0 mi North 8.1 mph - N/A   Overcast
10:13 PM -2.2 °F -14.2 °F -7.6 °F 78% 30.36 in 10.0 mi North 5.8 mph - N/A   Overcast
10:32 PM -2.2 °F -15.6 °F -7.6 °F 78% 30.37 in 10.0 mi North 6.9 mph - N/A   Overcast
10:52 PM -2.2 °F -16.8 °F -7.6 °F 78% 30.37 in 10.0 mi North 8.1 mph - N/A   Overcast
11:13 PM -2.2 °F -15.6 °F -7.6 °F 78% 30.36 in 10.0 mi North 6.9 mph - N/A   Overcast
11:32 PM -2.2 °F -16.8 °F -7.6 °F 78% 30.36 in 10.0 mi North 8.1 mph - N/A   Overcast
11:52 PM -2.2 °F -16.8 °F -7.6 °F 78% 30.36 in 10.0 mi NNW 8.1 mph - N/A   Overcast